Wind_Speed
5 6 7 8 9 10 12 13 14 16 17 19 19 21 22 23 24 24 24 26 27 28 29 28 28 28 28 29 30 31 31 30 29 29 28 28 27 26 26 26 27 26 26 25
6 7 8 9 10 12 14 15 16 17 18 19 20 21 21 23 24 25 26 27 28 28 29 30 29 29 29 30 31 31 31 30 29 29 29 28 27 27 27 27 26 26 25 25
7 7 10 11 13 14 16 18 18 18 18 19 21 21 21 23 24 25 26 27 28 29 30 30 30 30 30 30 30 31 31 30 30 29 29 29 28 28 27 26 26 26 26 25
8 9 11 13 14 15 17 18 19 20 19 18 18 20 22 23 24 25 25 26 27 29 30 30 30 29 29 30 30 30 30 30 30 29 28 28 28 27 27 26 25 25 24 25
9 11 12 14 15 17 18 18 19 19 17 16 17 20 22 23 24 25 25 25 26 27 29 29 30 29 29 30 31 31 30 29 29 29 28 27 26 26 26 25 25 24 24 23
12 14 15 15 16 18 19 18 18 17 16 15 16 19 20 21 22 23 24 25 27 28 28 29 30 30 30 30 31 31 31 31 30 29 27 26 26 25 25 24 23 23 23 23
13 15 17 17 18 18 19 20 18 17 16 16 17 19 21 22 24 25 26 27 28 28 29 30 31 30 30 30 30 31 30 30 28 27 26 25 25 25 24 23 22 22 23 23
13 15 17 18 19 19 20 20 20 20 20 19 19 20 22 22 23 25 26 28 29 29 29 29 30 30 29 29 29 29 29 28 27 25 25 24 25 24 23 23 22 23 23 23
15 16 17 19 19 20 20 19 19 21 22 22 23 22 22 22 23 24 26 28 28 29 29 29 30 30 30 29 29 28 28 28 26 24 24 23 22 22 22 22 22 22 22 21
18 17 17 18 19 19 19 19 19 21 22 23 24 24 23 23 24 26 27 27 28 29 29 29 29 29 29 29 29 28 27 25 26 25 24 22 22 22 22 21 20 20 20 20
19 20 19 18 19 19 18 19 21 22 23 24 25 25 25 24 25 26 26 27 28 28 28 28 29 29 28 28 28 27 26 25 25 24 23 21 20 20 19 20 19 19 19 19
20 21 20 19 19 19 20 20 21 22 23 24 26 27 25 24 25 26 27 28 28 29 29 29 29 29 28 27 27 26 25 24 24 23 23 21 20 19 19 19 19 19 18 18
21 21 20 18 18 19 19 20 21 22 23 23 24 25 25 25 26 27 28 28 28 28 28 28 29 29 27 26 26 25 24 23 23 23 22 20 19 19 19 18 18 18 18 18
21 21 20 19 19 20 19 19 20 21 22 23 24 25 25 26 27 27 27 28 28 28 29 29 29 28 28 26 26 25 23 22 22 21 20 20 19 18 17 17 17 17 17 17
21 21 20 20 20 21 21 20 20 21 22 23 24 25 27 27 28 28 28 28 29 30 30 29 29 28 25 24 24 23 22 21 21 20 19 20 19 18 18 18 17 17 17 17
22 21 20 20 20 20 20 21 21 22 22 23 24 26 27 28 29 29 28 28 29 29 29 28 28 27 25 23 22 22 22 21 20 19 19 19 18 18 17 17 17 16 17 16
22 22 21 20 20 20 20 21 21 21 22 23 25 27 28 28 28 28 27 27 27 27 27 27 27 26 24 23 23 22 21 21 20 19 17 17 17 17 17 16 16 16 16 15
23 22 22 22 21 21 22 22 22 23 24 25 26 27 28 28 28 26 25 25 26 26 26 26 25 24 24 23 23 21 20 19 19 16 15 15 16 16 16 15 16 16 15 13
23 23 23 24 24 23 23 23 24 25 25 26 26 27 27 27 26 25 24 25 25 25 25 26 25 24 23 22 22 20 19 18 17 15 14 14 15 15 15 15 15 14 13 12
23 23 24 25 25 25 24 24 25 25 25 26 26 25 25 26 26 25 24 24 24 25 26 25 24 23 22 21 21 20 18 17 16 15 12 12 13 13 14 14 13 12 11 11
25 24 25 26 26 26 26 25 26 26 26 24 24 24 24 25 26 25 24 24 24 25 25 25 23 22 21 20 20 18 17 16 15 13 11 11 12 13 12 12 12 10 10 11
26 26 26 27 27 26 27 26 26 26 25 25 25 25 25 26 26 25 25 25 24 24 24 24 23 21 20 19 18 16 16 15 14 12 10 10 11 11 11 11 11 10 10 10
26 27 28 28 27 27 27 27 26 26 25 25 25 25 26 26 26 26 26 26 25 24 24 23 21 19 18 17 16 15 14 14 13 10 9 10 10 10 11 12 11 10 9 10
26 27 28 28 27 27 28 27 27 27 26 26 27 27 27 27 27 26 26 26 25 23 22 20 19 17 16 15 14 13 13 11 10 8 9 9 9 10 11 11 10 10 9 10
28 27 27 26 26 26 26 27 27 27 27 28 28 28 28 28 27 26 25 24 22 20 20 18 16 16 14 13 12 12 10 9 8 7 8 8 8 8 9 9 9 9 10 11
27 27 27 26 26 26 26 26 27 28 28 28 27 27 27 26 26 24 23 22 20 19 17 16 15 13 12 11 10 10 8 8 7 6 6 6 6 7 8 8 9 9 10 11
Wind_Direction
249 254 260 274 288 297 296 294 289 292 295 295 295 296 298 300 302 302 303 304 305 306 307 308 308 307 306 304 305 304 306 304 302 300 300 299 299 300 299 294 295 290 291 291
254 266 276 281 286 289 291 291 292 293 292 290 290 292 294 296 298 300 304 305 304 306 309 309 309 308 305 303 304 304 304 303 302 300 299 300 299 299 299 297 295 292 291 289
276 272 277 283 288 294 295 294 296 295 294 290 292 291 292 295 299 303 305 306 306 308 310 310 307 305 305 303 302 302 302 300 300 300 299 299 299 298 298 297 297 293 292 291
287 282 282 288 292 294 297 298 299 297 292 289 292 293 294 298 300 301 301 304 306 309 309 310 309 308 308 306 306 303 302 301 300 301 300 299 298 299 299 297 297 297 295 293
290 290 291 292 296 300 303 305 303 303 297 292 292 292 296 299 300 302 301 304 306 306 308 308 308 309 309 309 308 305 302 301 300 300 299 298 297 298 298 297 296 297 296 296
294 296 297 299 303 303 304 305 303 299 296 291 293 294 298 303 306 307 306 306 306 307 307 310 312 311 311 310 308 306 305 306 302 299 298 299 298 297 298 298 298 298 299 296
297 298 300 301 302 303 305 306 304 299 298 297 298 300 303 303 307 307 307 307 307 308 310 313 313 313 312 311 311 310 309 307 304 300 297 299 299 299 296 297 299 298 298 296
305 302 302 300 301 305 308 308 308 307 306 304 302 304 307 308 309 309 308 309 311 312 313 312 312 312 312 312 313 312 310 308 305 303 302 301 300 301 299 297 298 298 298 298
309 305 303 302 302 304 303 302 304 306 307 307 305 304 306 307 308 308 309 310 310 313 313 312 311 310 311 311 311 311 311 311 309 305 307 306 303 302 300 300 299 298 297 297
315 313 308 303 300 301 303 304 304 306 309 309 307 305 309 309 308 307 309 310 310 311 313 312 312 312 311 310 310 310 311 310 309 308 308 308 304 300 301 301 301 301 299 297
317 316 313 305 303 302 302 301 304 307 309 311 312 312 312 309 308 308 308 310 311 311 313 312 312 312 311 311 310 310 310 307 308 309 309 308 306 305 305 304 304 304 302 299
319 318 316 311 310 309 307 305 306 307 309 309 310 312 313 310 309 307 308 310 312 313 312 313 312 310 309 309 310 310 309 306 308 308 309 309 306 306 307 306 307 305 304 303
321 320 318 315 312 310 306 306 308 308 308 308 309 313 316 313 309 309 309 310 311 312 312 312 311 310 309 308 308 310 311 308 306 306 307 308 308 308 308 307 308 308 306 304
322 320 319 317 316 313 310 308 310 310 309 309 311 313 316 315 314 313 312 311 310 309 310 310 309 308 309 309 310 313 314 312 308 307 308 310 308 308 310 309 309 309 308 307
321 321 320 320 319 316 313 312 311 313 313 310 313 315 317 317 317 316 315 314 313 312 310 311 310 310 312 312 312 313 315 313 310 308 310 311 309 307 310 311 311 311 309 308
320 321 321 320 318 314 312 314 314 316 318 316 317 318 319 318 316 316 315 315 316 315 314 312 312 313 313 314 316 316 314 312 310 309 311 309 308 309 312 313 313 312 311 308
321 321 319 317 314 312 311 314 316 318 320 318 320 321 322 321 319 318 316 316 318 321 320 316 314 313 315 315 313 314 314 313 311 310 310 309 309 310 312 314 313 315 314 310
319 320 319 317 316 312 317 317 317 319 318 318 320 321 323 323 323 322 320 320 321 322 321 320 317 314 315 316 314 314 316 315 314 311 310 309 311 314 314 315 314 313 314 315
320 318 318 319 318 315 315 317 317 318 318 321 322 322 323 325 325 324 323 323 322 322 322 321 320 316 314 315 315 313 316 315 313 312 308 307 310 315 316 317 318 316 317 317
319 317 316 318 316 315 316 316 316 315 315 320 320 322 324 326 326 327 323 321 320 322 323 323 321 319 316 314 313 311 315 315 314 314 309 308 311 316 317 319 320 320 319 320
317 315 315 316 315 314 315 316 316 315 316 316 319 321 323 325 325 325 324 319 319 320 321 321 321 319 318 316 314 312 313 314 314 313 311 311 314 319 322 326 325 321 320 321
315 314 314 315 313 314 314 313 315 315 315 314 315 317 320 321 321 322 321 319 317 318 320 321 321 320 319 318 315 313 314 313 314 312 313 314 315 320 324 331 330 325 323 325
311 312 312 311 310 309 309 308 310 312 313 314 312 314 317 318 318 319 319 318 316 317 319 321 323 323 321 319 318 316 316 316 315 312 312 315 317 323 326 331 335 331 328 329
306 308 308 307 307 306 306 306 306 308 309 311 313 313 314 315 316 316 318 318 315 316 317 321 323 322 321 320 320 319 319 321 320 317 315 318 323 329 331 333 338 339 335 331
304 306 306 305 304 301 303 304 304 305 307 308 310 310 311 312 315 316 316 318 314 314 316 318 319 320 321 322 324 325 326 326 326 322 321 321 326 330 333 335 338 339 338 335
302 303 304 304 300 298 299 300 301 303 305 306 308 309 309 311 314 315 316 316 313 312 314 316 318 319 321 326 327 329 329 326 324 324 327 328 329 332 336 338 338 340 340 341
Height
5894 5894 5892 5892 5891 5890 5889 5888 5887 5885 5883 5880 5878 5875 5873 5870 5867 5865 5863 5860 5858 5856 5853 5850 5846 5842 5838 5835 5831 5828 5824 5820 5817 5815 5811 5808 5806 5803 5801 5799 5797 5795 5792 5790
5893 5892 5891 5889 5888 5887 5886 5885 5883 5882 5879 5877 5874 5871 5868 5865 5863 5860 5858 5855 5852 5850 5847 5844 5840 5836 5832 5828 5825 5821 5817 5814 5811 5807 5805 5802 5799 5797 5795 5793 5790 5788 5786 5784
5890 5890 5888 5886 5885 5884 5883 5881 5878 5877 5875 5873 5869 5867 5864 5861 5858 5856 5853 5850 5847 5844 5840 5837 5834 5830 5826 5822 5818 5815 5811 5807 5804 5801 5799 5796 5793 5790 5788 5786 5783 5781 5778 5776
5888 5887 5885 5883 5882 5880 5878 5876 5874 5871 5870 5867 5866 5862 5859 5857 5855 5852 5849 5846 5842 5838 5834 5830 5827 5823 5820 5816 5812 5809 5805 5801 5798 5795 5792 5789 5786 5784 5782 5779 5777 5774 5771 5769
5885 5884 5882 5880 5878 5876 5874 5872 5869 5867 5865 5863 5860 5857 5855 5853 5850 5847 5844 5841 5837 5833 5828 5824 5820 5816 5813 5809 5806 5802 5798 5795 5791 5788 5784 5782 5779 5777 5775 5773 5770 5768 5766 5763
5882 5880 5878 5876 5875 5872 5870 5868 5866 5863 5861 5859 5857 5854 5851 5848 5845 5842 5839 5835 5831 5827 5823 5819 5814 5810 5807 5803 5799 5795 5791 5787 5784 5780 5777 5774 5772 5770 5769 5766 5764 5762 5760 5757
5880 5877 5875 5873 5871 5869 5866 5864 5861 5858 5856 5855 5852 5849 5846 5843 5840 5836 5833 5829 5825 5821 5817 5813 5809 5805 5801 5797 5793 5788 5785 5780 5777 5774 5770 5767 5765 5763 5761 5760 5758 5756 5753 5751
5876 5874 5871 5868 5866 5864 5861 5859 5856 5853 5851 5849 5847 5844 5842 5838 5834 5831 5827 5823 5819 5815 5812 5807 5803 5799 5795 5791 5787 5782 5778 5774 5771 5767 5764 5761 5759 5756 5754 5753 5751 5749 5747 5745
5871 5870 5867 5864 5861 5859 5857 5854 5852 5849 5846 5844 5841 5839 5837 5833 5829 5826 5822 5818 5814 5810 5806 5802 5798 5794 5790 5786 5781 5777 5773 5769 5764 5762 5759 5756 5753 5751 5749 5747 5745 5743 5741 5739
5867 5865 5863 5861 5858 5855 5852 5849 5847 5845 5841 5838 5835 5833 5831 5827 5824 5821 5817 5812 5808 5804 5800 5796 5792 5788 5784 5780 5776 5772 5767 5764 5760 5757 5754 5751 5748 5746 5744 5741 5739 5737 5735 5733
5863 5861 5859 5856 5853 5850 5848 5846 5842 5840 5836 5833 5829 5829 5826 5822 5819 5815 5811 5807 5802 5798 5794 5790 5785 5782 5778 5774 5770 5766 5762 5758 5755 5751 5748 5745 5742 5740 5739 5737 5734 5732 5730 5727
5859 5856 5853 5851 5848 5845 5843 5840 5838 5836 5832 5828 5824 5825 5819 5816 5812 5809 5805 5801 5797 5792 5788 5783 5780 5776 5772 5768 5764 5760 5756 5753 5750 5746 5743 5740 5738 5736 5733 5731 5728 5726 5724 5722
5855 5852 5849 5846 5846 5842 5839 5836 5833 5830 5827 5823 5820 5819 5813 5810 5806 5803 5799 5795 5791 5786 5782 5777 5773 5770 5766 5762 5757 5753 5750 5747 5745 5741 5738 5735 5733 5731 5728 5726 5723 5721 5719 5717
5851 5848 5845 5843 5840 5836 5834 5831 5828 5825 5821 5817 5815 5812 5808 5804 5800 5797 5793 5789 5785 5780 5776 5771 5767 5763 5759 5755 5751 5748 5745 5742 5739 5736 5733 5730 5728 5726 5724 5721 5718 5716 5714 5712
5847 5844 5840 5837 5834 5831 5828 5826 5823 5820 5815 5812 5809 5806 5802 5798 5794 5790 5786 5782 5778 5773 5768 5763 5759 5754 5751 5748 5746 5742 5739 5736 5733 5730 5728 5726 5724 5721 5719 5716 5714 5711 5709 5707
5842 5839 5836 5833 5830 5826 5823 5821 5818 5815 5810 5807 5803 5800 5797 5793 5788 5784 5780 5776 5771 5766 5762 5757 5752 5748 5745 5743 5740 5737 5734 5731 5728 5725 5723 5721 5719 5717 5714 5712 5709 5707 5705 5702
5837 5834 5831 5828 5825 5822 5819 5816 5813 5809 5805 5802 5798 5795 5791 5786 5782 5778 5774 5769 5765 5760 5755 5751 5747 5743 5740 5737 5734 5732 5729 5726 5723 5720 5718 5716 5714 5712 5710 5708 5705 5703 5701 5698
5833 5829 5826 5823 5821 5817 5816 5811 5807 5804 5800 5797 5793 5789 5785 5780 5776 5772 5768 5763 5760 5755 5751 5746 5742 5738 5735 5732 5729 5727 5724 5721 5718 5715 5714 5712 5710 5709 5706 5704 5702 5699 5697 5694
5828 5824 5821 5817 5814 5811 5809 5805 5802 5798 5795 5791 5788 5784 5780 5775 5771 5767 5763 5759 5755 5750 5746 5742 5737 5734 5731 5727 5725 5722 5720 5717 5714 5711 5710 5708 5707 5705 5703 5700 5698 5696 5693 5691
5823 5820 5817 5812 5809 5806 5805 5801 5796 5794 5790 5787 5783 5779 5775 5770 5766 5763 5758 5754 5750 5746 5741 5737 5733 5729 5726 5723 5720 5718 5716 5713 5710 5707 5706 5705 5703 5702 5699 5697 5695 5693 5691 5689
5818 5815 5811 5807 5803 5800 5798 5794 5792 5789 5787 5782 5778 5774 5770 5766 5762 5758 5753 5749 5745 5741 5737 5733 5729 5725 5722 5719 5716 5714 5712 5709 5706 5704 5703 5702 5700 5699 5696 5694 5692 5690 5688 5686
5812 5809 5805 5801 5798 5797 5792 5788 5786 5783 5779 5776 5772 5769 5765 5761 5757 5753 5748 5744 5741 5737 5732 5728 5724 5721 5718 5715 5713 5710 5708 5706 5704 5702 5700 5699 5698 5696 5694 5692 5690 5688 5686 5684
5807 5804 5799 5796 5794 5789 5786 5783 5780 5777 5774 5771 5767 5763 5760 5756 5752 5748 5744 5739 5735 5732 5728 5724 5720 5717 5714 5711 5709 5707 5705 5703 5701 5700 5698 5697 5696 5694 5692 5690 5688 5686 5684 5682
5801 5798 5794 5790 5787 5783 5780 5777 5775 5772 5768 5765 5761 5758 5754 5751 5747 5743 5738 5734 5730 5727 5724 5720 5717 5714 5711 5708 5706 5704 5702 5700 5699 5698 5696 5695 5694 5692 5690 5688 5686 5684 5683 5681
5794 5791 5788 5784 5781 5778 5774 5771 5769 5766 5763 5759 5756 5752 5748 5745 5741 5737 5733 5730 5726 5723 5720 5717 5714 5711 5709 5706 5704 5702 5700 5699 5697 5696 5695 5694 5692 5691 5689 5687 5685 5683 5681 5679
5787 5784 5780 5778 5775 5772 5769 5766 5763 5760 5757 5753 5750 5747 5743 5739 5735 5732 5729 5725 5722 5719 5717 5714 5711 5709 5706 5705 5703 5701 5700 5698 5697 5696 5694 5693 5691 5690 5688 5686 5684 5682 5680 5678